Project,Study,Ord_Occ,Event_Num,Cast_ID,Date_Time_UTC,Date_Time_PST,Lat_Dec,Lon_Dec,Sta_ID,Line,Sta,Depth,Pressure,PrQ,Temp1,Temp1Q,Temp2,Temp2Q,TempAve,Salt1,Salt1Q,Salt1_Corr,Salt2,Salt2Q,Salt2_Corr,SaltAve_Corr,Ox1,Ox1Q,Ox1_CruiseCorr,Ox1_StaCorr,Ox2,Ox2Q,Ox2_CruiseCorr,Ox2_StaCorr,OxAve_StaCorr,Ox1uM,Ox1uM_CruiseCorr,Ox1uM_StaCorr,Ox2uM,Ox2uM_CruiseCorr,Ox2uM_StaCorr,OxAveuM_StaCorr,FluorV,FluorQ,EstChl_CruiseCorr,EstChl_StaCorr,ISUSV,ISUSQ,EstNO3_CruiseCorr,EstNO3_StaCorr,SigThetaTS1,SigThetaTS1Q,SigThetaTS2,SigThetaTS2Q,BAT,XMiss,TransQ,pH,pHQ,SPAR,SPARQ,PAR,PARQ,PoT1,PoT2,DynHt,SVA,OxSat1,OxSat2,BTL_Depth,BTL_Temp,SaltB,OxB,OxBuM,Chl-a,Phaeo,NO3,NO2,NH4,PO4,SIL
CalCOFI,2105SH,040,,2105_040u,13-May-2021 04:18:38,12-May-2021 20:18:38,34.27559,-120.02998,081.8 046.9,081.8,046.9,568.000,572.887,,6.5957,,6.5959,,6.5958,34.2547,,34.2559,34.2551,,34.2570,34.2565,0.0250,,0.0922,0.1376,0.0295,,0.0900,0.1544,0.1460,1.088,3.6362,4.8176,1.283,6.3036,4.9711,4.8944,0.0386,,,,0.5165,,0.0000,,26.8934,,26.8937,,,,,,,,,,,6.5430,6.5432,0.8383,123.638,0.365,0.431,568,6.596,34.2536,,4.04,,,22.43,0.00,0.22,3.89,96.29
CalCOFI,2105SH,040,,2105_040u,13-May-2021 04:18:47,12-May-2021 20:18:47,34.27558,-120.03000,081.8 046.9,081.8,046.9,567.000,571.877,,6.5959,,6.5961,,6.5960,34.2546,,34.2558,34.2550,,34.2569,34.2564,0.0250,,0.0922,0.1376,0.0295,,0.0900,0.1544,0.1460,1.088,3.6362,4.8176,1.283,6.3036,4.9711,4.8944,0.0385,,,,0.5165,,0.0000,,26.8933,,26.8936,,,,,,,,,,,6.5433,6.5435,0.8387,123.635,0.365,0.431,,,,,,,,,,,,
CalCOFI,2105SH,040,,2105_040u,13-May-2021 04:18:48,12-May-2021 20:18:48,34.27558,-120.03000,081.8 046.9,081.8,046.9,566.000,570.867,,6.5957,,6.5960,,6.5959,34.2547,,34.2559,34.2551,,34.2570,34.2565,0.0250,,0.0922,0.1376,0.0295,,0.0900,0.1544,0.1460,1.088,3.6362,4.8176,1.283,6.3036,4.9711,4.8944,0.0379,,,,0.5165,,0.0000,,26.8934,,26.8936,,,,,,,,,,,6.5432,6.5435,0.8387,123.608,0.365,0.431,,,,,,,,,,,,
CalCOFI,2105SH,040,,2105_040u,13-May-2021 04:18:49,12-May-2021 20:18:49,34.27558,-120.03000,081.8 046.9,081.8,046.9,565.000,569.857,,6.5956,,6.5960,,6.5958,34.2546,,34.2558,34.2550,,34.2569,34.2564,0.0233,,0.0905,0.1359,0.0295,,0.0900,0.1544,0.1452,1.011,3.5557,4.7389,1.283,6.2204,4.9711,4.8550,0.0382,,,,0.5165,,0.0000,,26.8933,,26.8936,,,,,,,,,,,6.5432,6.5435,0.8387,123.603,0.339,0.431,,,,,,,,,,,,
CalCOFI,2105SH,040,,2105_040u,13-May-2021 04:18:50,12-May-2021 20:18:50,34.27558,-120.03000,081.8 046.9,081.8,046.9,564.000,568.847,,6.5956,,6.5959,,6.5958,34.2546,,34.2558,34.2550,,34.2569,34.2564,0.0240,,0.0912,0.1366,0.0295,,0.0900,0.1544,0.1455,1.042,3.5881,4.7706,1.283,6.2539,4.9711,4.8709,0.0391,,,,0.5165,,0.0000,,26.8933,,26.8936,,,,,,,,,,,6.5433,6.5435,0.8387,123.590,0.350,0.431,,,,,,,,,,,,
CalCOFI,2105SH,040,,2105_040u,13-May-2021 04:18:51,12-May-2021 20:18:51,34.27558,-120.03000,081.8 046.9,081.8,046.9,563.000,567.837,,6.5954,,6.5958,,6.5956,34.2547,,34.2559,34.2550,,34.2569,34.2564,0.0268,,0.0941,0.1394,0.0295,,0.0900,0.1544,0.1469,1.164,3.7156,4.8954,1.282,6.3856,4.9701,4.9328,0.0383,,,,0.5165,,0.0000,,26.8934,,26.8936,,,,,,,,,,,6.5432,6.5435,0.8387,123.565,0.391,0.431,,,,,,,,,,,,
CalCOFI,2105SH,040,,2105_040u,13-May-2021 04:18:51,12-May-2021 20:18:51,34.27558,-120.03000,081.8 046.9,081.8,046.9,562.000,566.827,,6.5954,,6.5956,,6.5955,34.2546,,34.2558,34.2551,,34.2570,34.2564,0.0250,,0.0922,0.1376,0.0295,,0.0900,0.1544,0.1460,1.088,3.6362,4.8176,1.282,6.3036,4.9701,4.8939,0.0391,,,,0.5165,,0.0000,,26.8933,,26.8937,,,,,,,,,,,6.5432,6.5434,0.8387,123.554,0.365,0.431,,,,,,,,,,,,
CalCOFI,2105SH,040,,2105_040u,13-May-2021 04:18:52,12-May-2021 20:18:52,34.27558,-120.03000,081.8 046.9,081.8,046.9,561.000,565.817,,6.5953,,6.5954,,6.5954,34.2546,,34.2558,34.2551,,34.2570,34.2564,0.0250,,0.0922,0.1376,0.0295,,0.0900,0.1544,0.1460,1.087,3.6351,4.8166,1.282,6.3025,4.9701,4.8934,0.0391,,,,0.5165,,0.0000,,26.8932,,26.8937,,,,,,,,,,,6.5433,6.5434,0.8387,123.545,0.365,0.431,,,,,,,,,,,,
CalCOFI,2105SH,040,,2105_040u,13-May-2021 04:18:53,12-May-2021 20:18:53,34.27558,-120.03000,081.8 046.9,081.8,046.9,560.000,564.807,,6.5951,,6.5953,,6.5952,34.2547,,34.2559,34.2551,,34.2570,34.2565,0.0250,,0.0922,0.1376,0.0295,,0.0900,0.1544,0.1460,1.087,3.6351,4.8166,1.282,6.3025,4.9701,4.8934,0.0389,,,,0.5165,,0.0000,,26.8933,,26.8937,,,,,,,,,,,6.5432,6.5434,0.8387,123.521,0.365,0.430,,,,,,,,,,,,
CalCOFI,2105SH,040,,2105_040u,13-May-2021 04:18:54,12-May-2021 20:18:54,34.27558,-120.03000,081.8 046.9,081.8,046.9,559.000,563.797,,6.5949,,6.5951,,6.5950,34.2547,,34.2559,34.2551,,34.2570,34.2565,0.0250,,0.0922,0.1376,0.0295,,0.0900,0.1544,0.1460,1.087,3.6351,4.8166,1.282,6.3025,4.9701,4.8934,0.0388,,,,0.5164,,0.0000,,26.8934,,26.8937,,,,,,,,,,,6.5431,6.5433,0.8387,123.499,0.365,0.430,,,,,,,,,,,,
CalCOFI,2105SH,040,,2105_040u,13-May-2021 04:18:55,12-May-2021 20:18:55,34.27558,-120.03000,081.8 046.9,081.8,046.9,558.000,562.787,,6.5948,,6.5952,,6.5950,34.2547,,34.2559,34.2551,,34.2570,34.2565,0.0250,,0.0922,0.1376,0.0295,,0.0900,0.1544,0.1460,1.087,3.6351,4.8166,1.282,6.3025,4.9701,4.8934,0.0377,,,,0.5164,,0.0000,,26.8934,,26.8936,,,,,,,,,,,6.5431,6.5434,0.8387,123.489,0.365,0.430,,,,,,,,,,,,
CalCOFI,2105SH,040,,2105_040u,13-May-2021 04:18:56,12-May-2021 20:18:56,34.27558,-120.03000,081.8 046.9,081.8,046.9,557.000,561.777,,6.5948,,6.5952,,6.5950,34.2546,,34.2558,34.2549,,34.2568,34.2563,0.0250,,0.0922,0.1376,0.0295,,0.0900,0.1544,0.1460,1.086,3.6341,4.8156,1.281,6.3014,4.9691,4.8924,0.0385,,,,0.5164,,0.0000,,26.8933,,26.8935,,,,,,,,,,,6.5432,6.5436,0.8387,123.477,0.365,0.430,,,,,,,,,,,,
CalCOFI,2105SH,040,,2105_040u,13-May-2021 04:18:57,12-May-2021 20:18:57,34.27558,-120.03000,081.8 046.9,081.8,046.9,556.000,560.767,,6.5949,,6.5954,,6.5952,34.2546,,34.2558,34.2550,,34.2569,34.2564,0.0250,,0.0922,0.1376,0.0295,,0.0900,0.1544,0.1460,1.086,3.6341,4.8156,1.281,6.3014,4.9691,4.8924,0.0374,,,,0.5164,,0.0000,,26.8933,,26.8935,,,,,,,,,,,6.5434,6.5439,0.8387,123.464,0.365,0.430,,,,,,,,,,,,
CalCOFI,2105SH,040,,2105_040u,13-May-2021 04:18:58,12-May-2021 20:18:58,34.27559,-120.03000,081.8 046.9,081.8,046.9,555.000,559.757,,6.5949,,6.5953,,6.5951,34.2547,,34.2559,34.2549,,34.2568,34.2564,0.0250,,0.0922,0.1376,0.0295,,0.0900,0.1544,0.1460,1.086,3.6341,4.8156,1.281,6.3014,4.9691,4.8924,0.0377,,,,0.5164,,0.0000,,26.8933,,26.8935,,,,,,,,,,,6.5435,6.5439,0.8387,123.449,0.365,0.430,,,,,,,,,,,,
CalCOFI,2105SH,040,,2105_040u,13-May-2021 04:18:59,12-May-2021 20:18:59,34.27560,-120.03000,081.8 046.9,081.8,046.9,554.000,558.747,,6.5949,,6.5951,,6.5950,34.2546,,34.2558,34.2551,,34.2570,34.2564,0.0250,,0.0922,0.1376,0.0295,,0.0900,0.1544,0.1460,1.086,3.6341,4.8156,1.281,6.3014,4.9691,4.8924,0.0385,,,,0.5164,,0.0000,,26.8933,,26.8936,,,,,,,,,,,6.5435,6.5437,0.8387,123.438,0.365,0.430,,,,,,,,,,,,
CalCOFI,2105SH,040,,2105_040u,13-May-2021 04:18:59,12-May-2021 20:18:59,34.27558,-120.03000,081.8 046.9,081.8,046.9,553.000,557.738,,6.5950,,6.5950,,6.5950,34.2545,,34.2557,34.2551,,34.2570,34.2564,0.0250,,0.0922,0.1376,0.0295,,0.0900,0.1544,0.1460,1.086,3.6341,4.8156,1.281,6.3014,4.9691,4.8924,0.0391,,,,0.5164,,0.0000,,26.8932,,26.8936,,,,,,,,,,,6.5438,6.5437,0.8387,123.431,0.365,0.430,,,,,,,,,,,,
CalCOFI,2105SH,040,,2105_040u,13-May-2021 04:19:00,12-May-2021 20:19:00,34.27558,-120.03000,081.8 046.9,081.8,046.9,552.000,556.728,,6.5951,,6.5949,,6.5950,34.2546,,34.2558,34.2551,,34.2570,34.2564,0.0250,,0.0922,0.1376,0.0294,,0.0899,0.1543,0.1460,1.086,3.6341,4.8156,1.281,6.3014,4.9691,4.8924,0.0390,,,,0.5164,,0.0000,,26.8932,,26.8936,,,,,,,,,,,6.5439,6.5437,0.8387,123.413,0.365,0.430,,,,,,,,,,,,
CalCOFI,2105SH,040,,2105_040u,13-May-2021 04:19:01,12-May-2021 20:19:01,34.27558,-120.03001,081.8 046.9,081.8,046.9,551.000,555.718,,6.5949,,6.5951,,6.5950,34.2547,,34.2559,34.2551,,34.2570,34.2565,0.0250,,0.0922,0.1376,0.0294,,0.0899,0.1543,0.1460,1.086,3.6341,4.8156,1.280,6.3014,4.9681,4.8919,0.0391,,,,0.5164,,0.0000,,26.8933,,26.8936,,,,,,,,,,,6.5439,6.5440,0.8387,123.393,0.365,0.430,,,,,,,,,,,,
CalCOFI,2105SH,040,,2105_040u,13-May-2021 04:19:02,12-May-2021 20:19:02,34.27559,-120.03002,081.8 046.9,081.8,046.9,550.000,554.708,,6.5950,,6.5953,,6.5952,34.2546,,34.2558,34.2549,,34.2568,34.2563,0.0250,,0.0922,0.1376,0.0294,,0.0899,0.1543,0.1460,1.085,3.6331,4.8146,1.280,6.3003,4.9681,4.8914,0.0381,,,,0.5164,,0.0000,,26.8932,,26.8934,,,,,,,,,,,6.5440,6.5444,0.8387,123.383,0.364,0.430,,,,,,,,,,,,
CalCOFI,2105SH,040,,2105_040u,13-May-2021 04:19:03,12-May-2021 20:19:03,34.27559,-120.03002,081.8 046.9,081.8,046.9,549.000,553.698,,6.5955,,6.5958,,6.5957,34.2544,,34.2556,34.2551,,34.2570,34.2563,0.0250,,0.0922,0.1376,0.0294,,0.0899,0.1543,0.1460,1.085,3.6331,4.8146,1.280,6.3003,4.9681,4.8914,0.0384,,,,0.5164,,0.0000,,26.8930,,26.8934,,,,,,,,,,,6.5446,6.5449,0.8387,123.390,0.364,0.430,,,,,,,,,,,,
CalCOFI,2105SH,040,,2105_040u,13-May-2021 04:19:04,12-May-2021 20:19:04,34.27558,-120.03002,081.8 046.9,081.8,046.9,548.000,552.688,,6.5955,,6.5962,,6.5959,34.2546,,34.2558,34.2551,,34.2570,34.2564,0.0250,,0.0922,0.1376,0.0294,,0.0899,0.1543,0.1460,1.085,3.6331,4.8146,1.280,6.3003,4.9681,4.8914,0.0395,,,,0.5164,,0.0000,,26.8931,,26.8934,,,,,,,,,,,6.5447,6.5454,0.8387,123.365,0.364,0.430,,,,,,,,,,,,
CalCOFI,2105SH,040,,2105_040u,13-May-2021 04:19:04,12-May-2021 20:19:04,34.27558,-120.03002,081.8 046.9,081.8,046.9,547.000,551.678,,6.5961,,6.5961,,6.5961,34.2545,,34.2557,34.2550,,34.2569,34.2563,0.0249,,0.0921,0.1375,0.0294,,0.0899,0.1543,0.1459,1.085,3.6331,4.8146,1.280,6.3003,4.9681,4.8914,0.0376,,,,0.5164,,0.0000,,26.8929,,26.8933,,,,,,,,,,,6.5454,6.5455,0.8387,123.367,0.364,0.430,,,,,,,,,,,,
CalCOFI,2105SH,040,,2105_040u,13-May-2021 04:19:05,12-May-2021 20:19:05,34.27558,-120.03002,081.8 046.9,081.8,046.9,546.000,550.668,,6.5972,,6.5961,,6.5967,34.2543,,34.2555,34.2551,,34.2570,34.2563,0.0249,,0.0921,0.1375,0.0294,,0.0899,0.1543,0.1459,1.085,3.6331,4.8146,1.280,6.3003,4.9681,4.8914,0.0395,,,,0.5164,,0.0000,,26.8926,,26.8933,,,,,,,,,,,6.5466,6.5455,0.8387,123.380,0.364,0.430,,,,,,,,,,,,
CalCOFI,2105SH,040,,2105_040u,13-May-2021 04:19:06,12-May-2021 20:19:06,34.27558,-120.03002,081.8 046.9,081.8,046.9,545.000,549.658,,6.5976,,6.5970,,6.5973,34.2545,,34.2557,34.2550,,34.2569,34.2563,0.0249,,0.0921,0.1375,0.0294,,0.0899,0.1543,0.1459,1.085,3.6331,4.8146,1.279,6.3003,4.9671,4.8909,0.0391,,,,0.5164,,0.0000,,26.8927,,26.8932,,,,,,,,,,,6.5471,6.5465,0.8387,123.357,0.364,0.430,,,,,,,,,,,,
CalCOFI,2105SH,040,,2105_040u,13-May-2021 04:19:07,12-May-2021 20:19:07,34.27560,-120.03002,081.8 046.9,081.8,046.9,544.000,548.648,,6.5974,,6.5977,,6.5976,34.2546,,34.2558,34.2551,,34.2570,34.2564,0.0249,,0.0921,0.1375,0.0294,,0.0899,0.1543,0.1459,1.085,3.6331,4.8146,1.279,6.3003,4.9671,4.8909,0.0391,,,,0.5164,,0.0000,,26.8928,,26.8931,,,,,,,,,,,6.5470,6.5473,0.8387,123.331,0.364,0.430,,,,,,,,,,,,
CalCOFI,2105SH,040,,2105_040u,13-May-2021 04:19:08,12-May-2021 20:19:08,34.27560,-120.03002,081.8 046.9,081.8,046.9,543.000,547.639,,6.5970,,6.5973,,6.5972,34.2547,,34.2559,34.2550,,34.2569,34.2564,0.0249,,0.0921,0.1375,0.0294,,0.0899,0.1543,0.1459,1.084,3.6320,4.8135,1.279,6.2992,4.9671,4.8903,0.0383,,,,0.5164,,0.0000,,26.8929,,26.8931,,,,,,,,,,,6.5467,6.5470,0.8387,123.309,0.364,0.430,,,,,,,,,,,,
CalCOFI,2105SH,040,,2105_040u,13-May-2021 04:19:09,12-May-2021 20:19:09,34.27560,-120.03002,081.8 046.9,081.8,046.9,542.000,546.629,,6.5980,,6.5981,,6.5981,34.2543,,34.2555,34.2549,,34.2568,34.2562,0.0249,,0.0921,0.1375,0.0294,,0.0899,0.1543,0.1459,1.084,3.6320,4.8135,1.279,6.2992,4.9671,4.8903,0.0384,,,,0.5165,,0.0000,,26.8924,,26.8929,,,,,,,,,,,6.5479,6.5479,0.8387,123.338,0.364,0.429,,,,,,,,,,,,
CalCOFI,2105SH,040,,2105_040u,13-May-2021 04:19:10,12-May-2021 20:19:10,34.27560,-120.03003,081.8 046.9,081.8,046.9,541.000,545.619,,6.5991,,6.5985,,6.5988,34.2544,,34.2556,34.2551,,34.2570,34.2563,0.0249,,0.0921,0.1375,0.0294,,0.0899,0.1543,0.1459,1.084,3.6320,4.8135,1.279,6.2992,4.9671,4.8903,0.0391,,,,0.5165,,0.0000,,26.8924,,26.8930,,,,,,,,,,,6.5490,6.5484,0.8387,123.329,0.364,0.429,,,,,,,,,,,,
CalCOFI,2105SH,040,,2105_040u,13-May-2021 04:19:11,12-May-2021 20:19:11,34.27560,-120.03004,081.8 046.9,081.8,046.9,540.000,544.609,,6.5993,,6.5995,,6.5994,34.2546,,34.2558,34.2551,,34.2570,34.2564,0.0304,,0.0979,0.1430,0.0314,,0.0919,0.1563,0.1497,1.323,3.8819,5.0580,1.365,6.5574,5.0540,5.0560,0.0391,,,,0.5166,,0.0000,,26.8925,,26.8929,,,,,,,,,,,6.5493,6.5495,0.8387,123.300,0.444,0.458,,,,,,,,,,,,
CalCOFI,2105SH,040,,2105_040u,13-May-2021 04:19:12,12-May-2021 20:19:12,34.27560,-120.03004,081.8 046.9,081.8,046.9,539.000,543.599,,6.6007,,6.6009,,6.6008,34.2543,,34.2555,34.2551,,34.2570,34.2563,0.0353,,0.1030,0.1479,0.0390,,0.0998,0.1638,0.1559,1.533,4.1014,5.2727,1.698,6.7842,5.3907,5.3317,0.0386,,,,0.5167,,0.0000,,26.8921,,26.8926,,,,,,,,,,,6.5508,6.5510,0.8387,123.327,0.515,0.570,,,,,,,,,,,,
CalCOFI,2105SH,040,,2105_040u,13-May-2021 04:19:13,12-May-2021 20:19:13,34.27560,-120.03004,081.8 046.9,081.8,046.9,538.000,542.589,,6.6039,,6.6023,,6.6031,34.2546,,34.2558,34.2549,,34.2568,34.2563,0.0297,,0.0972,0.1423,0.0359,,0.0966,0.1607,0.1515,1.294,3.8515,5.0283,1.562,6.5260,5.2532,5.1408,0.0381,,,,0.5168,,0.0000,,26.8918,,26.8923,,,,,,,,,,,6.5540,6.5524,0.8387,123.340,0.435,0.525,,,,,,,,,,,,
CalCOFI,2105SH,040,,2105_040u,13-May-2021 04:19:14,12-May-2021 20:19:14,34.27560,-120.03004,081.8 046.9,081.8,046.9,537.000,541.579,,6.6021,,6.6022,,6.6022,34.2547,,34.2559,34.2550,,34.2569,34.2564,0.0297,,0.0972,0.1423,0.0343,,0.0949,0.1592,0.1508,1.294,3.8515,5.0283,1.490,6.5260,5.1804,5.1044,0.0387,,,,0.5169,,0.0000,,26.8922,,26.8924,,,,,,,,,,,6.5523,6.5525,0.8387,123.292,0.434,0.500,,,,,,,,,,,,
CalCOFI,2105SH,040,,2105_040u,13-May-2021 04:19:15,12-May-2021 20:19:15,34.27560,-120.03004,081.8 046.9,081.8,046.9,536.000,540.570,,6.6025,,6.6031,,6.6028,34.2546,,34.2558,34.2550,,34.2569,34.2564,0.0297,,0.0972,0.1423,0.0345,,0.0951,0.1594,0.1509,1.293,3.8505,5.0273,1.501,6.5250,5.1915,5.1094,0.0383,,,,0.5170,,0.0000,,26.8920,,26.8923,,,,,,,,,,,6.5529,6.5534,0.8387,123.291,0.434,0.504,,,,,,,,,,,,
CalCOFI,2105SH,040,,2105_040u,13-May-2021 04:19:15,12-May-2021 20:19:15,34.27560,-120.03004,081.8 046.9,081.8,046.9,535.000,539.560,,6.6031,,6.6041,,6.6036,34.2547,,34.2559,34.2550,,34.2569,34.2564,0.0297,,0.0972,0.1423,0.0339,,0.0945,0.1588,0.1506,1.293,3.8505,5.0273,1.475,6.5250,5.1652,5.0963,0.0387,,,,0.5171,,0.0000,,26.8920,,26.8921,,,,,,,,,,,6.5535,6.5545,0.8387,123.273,0.434,0.495,,,,,,,,,,,,
CalCOFI,2105SH,040,,2105_040u,13-May-2021 04:19:16,12-May-2021 20:19:16,34.27560,-120.03004,081.8 046.9,081.8,046.9,534.000,538.550,,6.6039,,6.6036,,6.6038,34.2546,,34.2558,34.2550,,34.2569,34.2564,0.0298,,0.0973,0.1424,0.0339,,0.0945,0.1588,0.1506,1.297,3.8547,5.0314,1.475,6.5293,5.1652,5.0983,0.0387,,,,0.5172,,0.0000,,26.8918,,26.8922,,,,,,,,,,,6.5544,6.5541,0.8387,123.282,0.435,0.495,,,,,,,,,,,,
CalCOFI,2105SH,040,,2105_040u,13-May-2021 04:19:17,12-May-2021 20:19:17,34.27560,-120.03005,081.8 046.9,081.8,046.9,533.000,537.540,,6.6041,,6.6048,,6.6045,34.2547,,34.2559,34.2552,,34.2571,34.2565,0.0340,,0.1017,0.1466,0.0339,,0.0945,0.1588,0.1527,1.480,4.0460,5.2185,1.476,6.7269,5.1663,5.1924,0.0388,,,,0.5174,,0.0000,,26.8918,,26.8921,,,,,,,,,,,6.5547,6.5554,0.8387,123.265,0.497,0.495,,,,,,,,,,,,
CalCOFI,2105SH,040,,2105_040u,13-May-2021 04:19:18,12-May-2021 20:19:18,34.27560,-120.03006,081.8 046.9,081.8,046.9,532.000,536.530,,6.6052,,6.6063,,6.6058,34.2545,,34.2557,34.2549,,34.2568,34.2563,0.0378,,0.1056,0.1504,0.0404,,0.1012,0.1652,0.1578,1.646,4.2195,5.3883,1.759,6.9062,5.4524,5.4204,0.0375,,,,0.5175,,0.0000,,26.8915,,26.8917,,,,,,,,,,,6.5559,6.5570,0.8387,123.282,0.553,0.591,,,,,,,,,,,,
CalCOFI,2105SH,040,,2105_040u,13-May-2021 04:19:19,12-May-2021 20:19:19,34.27560,-120.03006,081.8 046.9,081.8,046.9,531.000,535.520,,6.6057,,6.6064,,6.6061,34.2545,,34.2557,34.2550,,34.2569,34.2563,0.0356,,0.1033,0.1482,0.0444,,0.1054,0.1691,0.1587,1.550,4.1192,5.2901,1.933,6.8025,5.6284,5.4593,0.0373,,,,0.5177,,0.0000,,26.8914,,26.8918,,,,,,,,,,,6.5565,6.5572,0.8387,123.272,0.521,0.649,,,,,,,,,,,,
CalCOFI,2105SH,040,,2105_040u,13-May-2021 04:19:20,12-May-2021 20:19:20,34.27560,-120.03006,081.8 046.9,081.8,046.9,530.000,534.511,,6.6066,,6.6056,,6.6061,34.2546,,34.2558,34.2549,,34.2568,34.2563,0.0342,,0.1019,0.1468,0.0380,,0.0988,0.1628,0.1548,1.486,4.0523,5.2247,1.653,6.7334,5.3452,5.2850,0.0375,,,,0.5179,,0.0000,,26.8913,,26.8918,,,,,,,,,,,6.5575,6.5565,0.8387,123.265,0.499,0.554,,,,,,,,,,,,
CalCOFI,2105SH,040,,2105_040u,13-May-2021 04:19:21,12-May-2021 20:19:21,34.27560,-120.03006,081.8 046.9,081.8,046.9,529.000,533.501,,6.6076,,6.6064,,6.6070,34.2543,,34.2555,34.2549,,34.2568,34.2562,0.0342,,0.1019,0.1468,0.0385,,0.0993,0.1633,0.1551,1.486,4.0523,5.2247,1.672,6.7334,5.3644,5.2946,0.0386,,,,0.5181,,0.0000,,26.8910,,26.8916,,,,,,,,,,,6.5586,6.5574,0.8387,123.287,0.499,0.561,,,,,,,,,,,,
CalCOFI,2105SH,040,,2105_040u,13-May-2021 04:19:22,12-May-2021 20:19:22,34.27560,-120.03006,081.8 046.9,081.8,046.9,528.000,532.491,,6.6079,,6.6073,,6.6076,34.2543,,34.2555,34.2548,,34.2567,34.2561,0.0342,,0.1019,0.1468,0.0420,,0.1029,0.1667,0.1568,1.486,4.0523,5.2247,1.828,6.7334,5.5222,5.3735,0.0382,,,,0.5183,,0.0000,,26.8910,,26.8915,,,,,,,,,,,6.5590,6.5584,0.8387,123.272,0.499,0.614,,,,,,,,,,,,
CalCOFI,2105SH,040,,2105_040u,13-May-2021 04:19:23,12-May-2021 20:19:23,34.27560,-120.03007,081.8 046.9,081.8,046.9,527.000,531.481,,6.6073,,6.6078,,6.6076,34.2544,,34.2556,34.2550,,34.2569,34.2563,0.0347,,0.1024,0.1473,0.0472,,0.1083,0.1718,0.1596,1.509,4.0763,5.2482,2.053,6.7582,5.7497,5.4990,0.0386,,,,0.5186,,0.0000,,26.8911,,26.8916,,,,,,,,,,,6.5585,6.5590,0.8387,123.242,0.507,0.689,,,,,,,,,,,,
CalCOFI,2105SH,040,,2105_040u,13-May-2021 04:19:24,12-May-2021 20:19:24,34.27560,-120.03008,081.8 046.9,081.8,046.9,526.000,530.471,,6.6069,,6.6095,,6.6082,34.2546,,34.2558,34.2550,,34.2569,34.2564,0.0417,,0.1097,0.1543,0.0450,,0.1060,0.1697,0.1620,1.812,4.3931,5.5581,1.955,7.0855,5.6506,5.6044,0.0378,,,,0.5188,,0.0000,,26.8913,,26.8913,,,,,,,,,,,6.5582,6.5608,0.8387,123.213,0.609,0.657,,,,,,,,,,,,
CalCOFI,2105SH,040,,2105_040u,13-May-2021 04:19:25,12-May-2021 20:19:25,34.27560,-120.03008,081.8 046.9,081.8,046.9,525.000,529.462,,6.6068,,6.6100,,6.6084,34.2547,,34.2559,34.2547,,34.2566,34.2563,0.0423,,0.1103,0.1549,0.0426,,0.1035,0.1673,0.1611,1.838,4.4202,5.5847,1.851,7.1136,5.5454,5.5651,0.0386,,,,0.5191,,0.0000,,26.8913,,26.8910,,,,,,,,,,,6.5582,6.5614,0.8387,123.191,0.617,0.622,,,,,,,,,,,,
CalCOFI,2105SH,040,,2105_040u,13-May-2021 04:19:26,12-May-2021 20:19:26,34.27560,-120.03008,081.8 046.9,081.8,046.9,524.000,528.452,,6.6084,,6.6102,,6.6093,34.2544,,34.2556,34.2547,,34.2566,34.2561,0.0386,,0.1065,0.1512,0.0472,,0.1083,0.1718,0.1615,1.679,4.2540,5.4220,2.055,6.9418,5.7517,5.5869,0.0376,,,,0.5194,,0.0000,,26.8909,,26.8909,,,,,,,,,,,6.5599,6.5617,0.8387,123.221,0.564,0.690,,,,,,,,,,,,
CalCOFI,2105SH,040,,2105_040u,13-May-2021 04:19:27,12-May-2021 20:19:27,34.27560,-120.03008,081.8 046.9,081.8,046.9,523.000,527.442,,6.6103,,6.6099,,6.6101,34.2544,,34.2556,34.2548,,34.2567,34.2562,0.0439,,0.1120,0.1565,0.0518,,0.1131,0.1764,0.1665,1.907,4.4924,5.6552,2.252,7.1881,5.9509,5.8031,0.0379,,,,0.5198,,0.0000,,26.8907,,26.8910,,,,,,,,,,,6.5618,6.5615,0.8387,123.230,0.641,0.756,,,,,,,,,,,,
CalCOFI,2105SH,040,,2105_040u,13-May-2021 04:19:28,12-May-2021 20:19:28,34.27560,-120.03008,081.8 046.9,081.8,046.9,522.000,526.432,,6.6112,,6.6115,,6.6114,34.2541,,34.2553,34.2547,,34.2566,34.2560,0.0526,,0.1211,0.1651,0.0523,,0.1136,0.1769,0.1710,2.286,4.8886,6.0428,2.272,7.5974,5.9711,6.0070,0.0376,,,,0.5201,,0.0000,,26.8903,,26.8907,,,,,,,,,,,6.5629,6.5632,0.8387,123.253,0.768,0.763,,,,,,,,,,,,
CalCOFI,2105SH,040,,2105_040u,13-May-2021 04:19:29,12-May-2021 20:19:29,34.27560,-120.03008,081.8 046.9,081.8,046.9,521.000,525.423,,6.6168,,6.6153,,6.6161,34.2535,,34.2547,34.2544,,34.2563,34.2555,0.0541,,0.1227,0.1666,0.0587,,0.1202,0.1832,0.1749,2.354,4.9597,6.1124,2.555,7.6708,6.2573,6.1849,0.0385,,,,0.5205,,0.0000,,26.8891,,26.8900,,,,,,,,,,,6.5686,6.5670,0.8387,123.356,0.791,0.858,,,,,,,,,,,,
CalCOFI,2105SH,040,,2105_040u,13-May-2021 04:19:30,12-May-2021 20:19:30,34.27560,-120.03008,081.8 046.9,081.8,046.9,520.000,524.413,,6.6171,,6.6160,,6.6166,34.2541,,34.2553,34.2545,,34.2564,34.2559,0.0493,,0.1177,0.1618,0.0567,,0.1181,0.1812,0.1715,2.144,4.7401,5.8976,2.464,7.4440,6.1653,6.0315,0.0375,,,,0.5208,,0.0000,,26.8895,,26.8900,,,,,,,,,,,6.5689,6.5678,0.8387,123.303,0.720,0.828,,,,,,,,,,,,
CalCOFI,2105SH,040,,2105_040u,13-May-2021 04:19:31,12-May-2021 20:19:31,34.27560,-120.03008,081.8 046.9,081.8,046.9,519.000,523.403,,6.6172,,6.6182,,6.6177,34.2541,,34.2553,34.2546,,34.2565,34.2559,0.0529,,0.1214,0.1654,0.0620,,0.1236,0.1864,0.1759,2.302,4.9053,6.0592,2.698,7.6147,6.4019,6.2306,0.0370,,,,0.5212,,0.0000,,26.8895,,26.8897,,,,,,,,,,,6.5692,6.5701,0.8387,123.288,0.773,0.906,,,,,,,,,,,,
CalCOFI,2105SH,040,,2105_040u,13-May-2021 04:19:32,12-May-2021 20:19:32,34.27560,-120.03009,081.8 046.9,081.8,046.9,518.000,522.393,,6.6194,,6.6191,,6.6193,34.2540,,34.2552,34.2546,,34.2565,34.2559,0.0577,,0.1264,0.1702,0.0552,,0.1166,0.1797,0.1750,2.510,5.1228,6.2719,2.400,7.8393,6.1006,6.1863,0.0373,,,,0.5219,,0.0000,,26.8891,,26.8896,,,,,,,,,,,6.5714,6.5712,0.8387,123.314,0.843,0.806,,,,,,,,,,,,
CalCOFI,2105SH,040,,2105_040u,13-May-2021 04:19:34,12-May-2021 20:19:34,34.27560,-120.03010,081.8 046.9,081.8,046.9,517.000,521.384,,6.6219,,6.6192,,6.6206,34.2539,,34.2551,34.2545,,34.2564,34.2558,0.0588,,0.1276,0.1713,0.0636,,0.1253,0.1880,0.1797,2.558,5.1729,6.3210,2.767,7.8912,6.4717,6.3964,0.0379,,,,0.5227,,0.0000,,26.8886,,26.8895,,,,,,,,,,,6.5740,6.5713,0.8387,123.342,0.860,0.930,,,,,,,,,,,,
CalCOFI,2105SH,040,,2105_040u,13-May-2021 04:19:52,12-May-2021 20:19:52,34.27560,-120.03015,081.8 046.9,081.8,046.9,516.000,520.374,,6.6242,,6.6242,,6.6242,34.2538,,34.2550,34.2542,,34.2561,34.2556,0.0612,,0.1301,0.1737,0.0638,,0.1255,0.1882,0.1810,2.662,5.2817,6.4273,2.776,8.0035,6.4808,6.4541,0.0373,,,,0.5258,,0.0000,,26.8882,,26.8885,,,,,,,,,,,6.5764,6.5764,0.8401,123.366,0.895,0.932,516,6.624,,,5.70,,,25.12,0.00,0.05,3.65,88.65
CalCOFI,2105SH,040,,2105_040u,13-May-2021 04:20:12,12-May-2021 20:20:12,34.27560,-120.03020,081.8 046.9,081.8,046.9,515.000,519.364,,6.6250,,6.6251,,6.6251,34.2537,,34.2549,34.2540,,34.2559,34.2554,0.0615,,0.1304,0.1740,0.0648,,0.1265,0.1891,0.1816,2.675,5.2952,6.4406,2.818,8.0175,6.5232,6.4819,0.0380,,,,0.5267,,0.0000,,26.8881,,26.8883,,,,,,,,,,,6.5773,6.5774,0.8414,123.366,0.899,0.947,,,,,,,,,,,,
CalCOFI,2105SH,040,,2105_040u,13-May-2021 04:20:13,12-May-2021 20:20:13,34.27560,-120.03020,081.8 046.9,081.8,046.9,514.000,518.354,,6.6253,,6.6253,,6.6253,34.2536,,34.2548,34.2541,,34.2560,34.2554,0.0619,,0.1308,0.1744,0.0651,,0.1268,0.1894,0.1819,2.693,5.3141,6.4591,2.829,8.0370,6.5344,6.4968,0.0371,,,,0.5267,,0.0000,,26.8879,,26.8883,,,,,,,,,,,6.5777,6.5777,0.8414,123.367,0.905,0.951,,,,,,,,,,,,
CalCOFI,2105SH,040,,2105_040u,13-May-2021 04:20:14,12-May-2021 20:20:14,34.27560,-120.03020,081.8 046.9,081.8,046.9,513.000,517.345,,6.6263,,6.6256,,6.6260,34.2535,,34.2547,34.2539,,34.2558,34.2553,0.0658,,0.1349,0.1783,0.0666,,0.1284,0.1909,0.1846,2.861,5.4897,6.6309,2.899,8.2184,6.6051,6.6180,0.0384,,,,0.5268,,0.0000,,26.8877,,26.8881,,,,,,,,,,,6.5788,6.5781,0.8414,123.374,0.962,0.974,,,,,,,,,,,,
CalCOFI,2105SH,040,,2105_040u,13-May-2021 04:20:15,12-May-2021 20:20:15,34.27560,-120.03020,081.8 046.9,081.8,046.9,512.000,516.335,,6.6267,,6.6258,,6.6263,34.2535,,34.2547,34.2540,,34.2559,34.2553,0.0674,,0.1366,0.1799,0.0695,,0.1314,0.1938,0.1869,2.931,5.5629,6.7025,3.020,8.2940,6.7275,6.7150,0.0373,,,,0.5269,,0.0000,,26.8876,,26.8881,,,,,,,,,,,6.5793,6.5784,0.8414,123.368,0.985,1.015,,,,,,,,,,,,